RSQA2 Weather Reports


Display with metric or nautical units.
time (UTC)temp
F
wind
direction
speed
MPH
gust
MPH
rain 1hr
in
rain 24hr
in
rain mn
in
humidity
%
barometer
mb
20260510015819 60 213 0.0 8.0 0.00 0.00 0.10 45 991.2
20260510014325 60 214 1.0 6.0 0.00 0.00 0.10 46 991.3
20260510012825 60 80 0.0 4.0 0.00 0.00 0.10 49 991.2
20260510011311 59 182 3.0 6.0 0.00 0.00 0.10 47 991.5
20260510005809 58 185 0.0 5.0 0.00 0.00 0.10 47 991.8
20260510004315 59 204 1.0 5.0 0.00 0.00 0.10 48 991.8
20260510002814 58 86 1.0 5.0 0.00 0.00 0.10 50 991.9
20260510001316 58 102 2.0 6.0 0.00 0.00 0.10 50 992.0
20260509234324 58 80 0.0 5.0 0.00 0.00 0.10 51 992.2
20260509231312 57 101 3.0 8.0 0.00 0.00 0.10 51 992.1
20260509224318 57 98 0.0 5.0 0.00 0.00 0.10 52 992.1
20260509215812 57 51 1.0 6.0 0.00 0.00 0.10 57 992.1
20260509214315 55 206 1.0 6.0 0.00 0.00 0.10 59 992.1
20260509212818 54 111 3.0 6.0 0.00 0.00 0.10 60 992.3
20260509211319 53 129 2.0 9.0 0.00 0.00 0.10 61 992.4
20260509205818 53 90 2.0 7.0 0.00 0.00 0.10 61 992.4
20260509201316 52 173 2.0 8.0 0.00 0.00 0.10 68 992.8
20260509195814 50 157 3.0 7.0 0.00 0.00 0.10 73 992.9
20260509194319 48 109 0.0 6.0 0.00 0.00 0.10 80 993.1
20260509191329 46 151 3.0 5.0 0.00 0.00 0.10 87 993.2
20260509185827 45 202 0.0 4.0 0.00 0.00 0.10 90 993.4
20260509184311 44 184 0.0 4.0 0.00 0.00 0.10 91 993.4
20260509182811 44 129 1.0 3.0 0.00 0.00 0.10 92 993.4
20260509172812 42 290 1.0 2.0 0.00 0.00 0.10 92 993.6
20260509165820 41 290 0.0 0.0 0.00 0.00 0.10 92 993.9
20260509164320 41 290 0.0 1.0 0.00 0.00 0.10 92 994.0
20260509160840 39 290 0.0 0.0 0.00 0.00 0.10 91 994.2
20260509132820 38 290 0.0 3.0 0.03 0.09 0.09 89 995.8
20260509131320 38 290 0.0 0.0 0.04 0.08 0.08 89 995.9
20260509124325 38 290 0.0 0.0 0.06 0.08 0.08 89 996.2
20260509122829 37 290 0.0 0.0 0.05 0.06 0.06 88 996.3
20260509114319 38 290 0.0 0.0 0.02 0.02 0.02 86 996.6
20260509112823 37 290 0.0 0.0 0.01 0.01 0.01 86 996.7
20260509111324 37 290 0.0 0.0 0.01 0.01 0.01 85 996.9
20260509105826 38 290 0.0 0.0 0.00 0.00 0.00 85 996.9
20260509104326 38 290 0.0 0.0 0.00 0.00 0.00 84 996.9
20260509102809 38 290 0.0 0.0 0.00 0.00 0.00 84 997.0
20260509101309 38 290 0.0 0.0 0.00 0.00 0.00 83 997.0
20260509095829 38 290 0.0 0.0 0.00 0.00 0.00 84 997.1
20260509094311 38 290 0.0 0.0 0.00 0.00 0.00 84 997.1
20260509092811 38 290 0.0 0.0 0.00 0.00 0.00 83 997.4
20260509085814 38 290 0.0 0.0 0.00 0.00 0.00 83 997.6
20260509084319 38 290 0.0 0.0 0.00 0.00 0.00 82 997.7
20260509082818 38 290 0.0 0.0 0.00 0.00 0.00 82 997.8
20260509081323 39 290 0.0 0.0 0.00 0.00 0.00 82 998.0
20260509075820 39 290 0.0 0.0 0.00 0.00 0.00 81 998.0
20260509074325 39 290 0.0 0.0 0.00 0.00 0.00 81 998.1
20260509072823 39 290 0.0 0.0 0.00 0.00 0.00 80 998.1
20260509064310 41 290 0.0 0.0 0.00 0.00 0.00 77 998.4
20260509061319 43 290 0.0 0.0 0.00 0.00 0.00 74 998.5
20260509054324 45 290 0.0 2.0 0.00 0.00 0.00 72 998.6
20260509042822 48 59 0.0 1.0 0.00 0.00 0.00 65 998.9
20260509041325 48 59 0.0 3.0 0.00 0.00 0.00 67 999.1
20260509035824 47 184 1.0 5.0 0.00 0.00 0.00 68 999.2
20260509025824 48 281 2.0 5.0 0.00 0.00 0.00 64 999.6
20260509025023 48 272 1.0 4.0 0.00 0.00 0.00 65 999.7